This is the latest recevied weather packets stored in our database for station/object YB2YEN-13. If no packets are shown the sender has not sent any weather packets the latest 10 day(s).
| Time | Temp. | Humidity | Pressure | Rain* | Wind** | Luminosity | Snow |
|---|---|---|---|---|---|---|---|
| 1777884451 | 30.56° C | 99% | 976 hPa | - | - | 0 W/m² | - |
| 1777884129 | 30.56° C | 99% | 976 hPa | - | - | 0 W/m² | - |
| 1777883808 | 30.56° C | 99% | 976 hPa | - | - | 0 W/m² | - |
| 1777883485 | 30.56° C | 99% | 976 hPa | - | - | 0 W/m² | - |
| 1777883163 | 30.56° C | 99% | 976 hPa | - | - | 0 W/m² | - |
| 1777882841 | 30.56° C | 99% | 976 hPa | - | - | 0 W/m² | - |
| 1777882519 | 30.56° C | 99% | 976 hPa | - | - | 0 W/m² | - |
| 1777882197 | 31.11° C | 93% | 976 hPa | - | - | 0 W/m² | - |
| 1777881875 | 31.11° C | 99% | 976 hPa | - | - | 0 W/m² | - |
| 1777881553 | 31.11° C | 99% | 976 hPa | - | - | 0 W/m² | - |
| 1777881231 | 31.11° C | 97% | 976 hPa | - | - | 0 W/m² | - |
| 1777880909 | 32.22° C | 95% | 976 hPa | - | - | 0 W/m² | - |
| 1777880587 | 32.22° C | 93% | 976 hPa | - | - | 0 W/m² | - |
| 1777880265 | 32.22° C | 89% | 976 hPa | - | - | 0 W/m² | - |
| 1777879943 | 32.22° C | 94% | 976 hPa | - | - | 0 W/m² | - |
| 1777879621 | 32.78° C | 85% | 976 hPa | - | - | 0 W/m² | - |
| 1777879299 | 33.89° C | 78% | 976 hPa | - | - | 0 W/m² | - |
| 1777878977 | 33.89° C | 80% | 976 hPa | - | - | 0 W/m² | - |
| 1777878655 | 33.33° C | 78% | 976 hPa | - | - | 0 W/m² | - |
| 1777878333 | 33.89° C | 84% | 976 hPa | - | - | 0 W/m² | - |
| 1777878011 | 33.33° C | 74% | 976 hPa | - | - | 0 W/m² | - |
| 1777877689 | 32.78° C | 79% | 976 hPa | - | - | 0 W/m² | - |
| 1777877367 | 32.78° C | 74% | 976 hPa | - | - | 0 W/m² | - |
| 1777877045 | 33.33° C | 82% | 976 hPa | - | - | 0 W/m² | - |
| 1777876723 | 33.33° C | 80% | 976 hPa | - | - | 0 W/m² | - |
* Rain since midnight (hover to see other rain measurements)
** Current wind speed in m/s (hover to see current wind gust speed)